H1 CPF 2 NER 2024 7 8 9 190 01 glonass138 H2 1805301 9138 43508 2024 7 8 0 0 0 2024 7 11 23 45 0 900 1 1 0 0 0 1 H9 10 0 60499 0.00000 0 -22286998.919 7916582.620 -9571613.945 10 0 60499 900.00000 0 -23234297.225 8269482.375 -6547593.624 10 0 60499 1800.00000 0 -23785404.726 8595735.430 -3396493.905 10 0 60499 2700.00000 0 -23939309.639 8838287.597 -179481.785 10 0 60499 3600.00000 0 -23708374.272 8942097.218 3041016.471 10 0 60499 4500.00000 0 -23117711.412 8856683.235 6202525.087 10 0 60499 5400.00000 0 -22204045.574 8538487.919 9243728.157 10 0 60499 6300.00000 0 -21014107.637 7952954.299 12105655.216 10 0 60499 7200.00000 0 -19602630.722 7076230.380 14732820.127 10 0 60499 8100.00000 0 -18030031.662 5896427.987 17074291.539 10 0 60499 9000.00000 0 -16359875.262 4414382.662 19084674.622 10 0 60499 9900.00000 0 -14656227.334 2643881.948 20724985.618 10 0 60499 10800.00000 0 -12981006.858 611351.427 21963402.949 10 0 60499 11700.00000 0 -11391447.344 -1644989.666 22775880.986 10 0 60499 12600.00000 0 -9937772.777 -4076469.456 23146615.131 10 0 60499 13500.00000 0 -8661184.490 -6625746.828 23068349.579 10 0 60499 14400.00000 0 -7592242.297 -9228964.675 22542521.911 10 0 60499 15300.00000 0 -6749706.970 -11818185.064 21579241.552 10 0 60499 16200.00000 0 -6139891.982 -14324006.585 20197101.985 10 0 60499 17100.00000 0 -5756551.394 -16678256.366 18422829.635 10 0 60499 18000.00000 0 -5581308.498 -18816645.679 16290775.263 10 0 60499 18900.00000 0 -5584607.249 -20681279.213 13842256.717 10 0 60499 19800.00000 0 -5727146.593 -22222913.670 11124764.732 10 0 60499 20700.00000 0 -5961737.341 -23402871.290 8191046.391 10 0 60499 21600.00000 0 -6235503.217 -24194528.011 5098083.411 10 0 60499 22500.00000 0 -6492332.847 -24584313.491 1905984.806 10 0 60499 23400.00000 0 -6675478.473 -24572180.442 -1323184.414 10 0 60499 24300.00000 0 -6730190.607 -24171523.288 -4526615.345 10 0 60499 25200.00000 0 -6606276.004 -23408549.239 -7641983.835 10 0 60499 26100.00000 0 -6260469.371 -22321128.195 -10608670.784 10 0 60499 27000.00000 0 -5658517.016 -20957170.193 -13368949.463 10 0 60499 27900.00000 0 -4776882.829 -19372598.983 -15869115.759 10 0 60499 28800.00000 0 -3604003.080 -17629007.664 -18060538.575 10 0 60499 29700.00000 0 -2141035.785 -15791095.654 -19900609.451 10 0 60499 30600.00000 0 -402071.900 -13923995.249 -21353572.662 10 0 60499 31500.00000 0 1586201.514 -12090600.528 -22391219.657 10 0 60499 32400.00000 0 3785372.855 -10349010.761 -22993434.619 10 0 60499 33300.00000 0 6146676.469 -8750195.387 -23148580.975 10 0 60499 34200.00000 0 8612805.249 -7335977.904 -22853721.912 10 0 60499 35100.00000 0 11120090.146 -6137422.296 -22114671.195 10 0 60499 36000.00000 0 13600956.062 -5173688.440 -20945873.829 10 0 60499 36900.00000 0 15986552.135 -4451403.110 -19370119.330 10 0 60499 37800.00000 0 18209447.199 -3964571.439 -17418093.489 10 0 60499 38700.00000 0 20206278.563 -3695031.014 -15127777.544 10 0 60499 39600.00000 0 21920244.113 -3613428.024 -12543706.553 10 0 60499 40500.00000 0 23303334.384 -3680673.004 -9716101.429 10 0 60499 41400.00000 0 24318212.036 -3849813.654 -6699891.531 10 0 60499 42300.00000 0 24939660.852 -4068244.756 -3553646.855 10 0 60499 43200.00000 0 25155544.446 -4280161.109 -338440.656 10 0 60499 44100.00000 0 24967235.290 -4429149.321 2883335.372 10 0 60499 45000.00000 0 24389496.842 -4460808.488 6049180.194 10 0 60499 45900.00000 0 23449824.445 -4325288.756 9097693.319 10 0 60499 46800.00000 0 22187273.179 -3979640.310 11969762.047 10 0 60499 47700.00000 0 20650822.241 -3389873.391 14609703.156 10 0 60499 48600.00000 0 18897344.598 -2532642.205 16966337.235 10 0 60499 49500.00000 0 16989266.904 -1396481.366 18993975.259 10 0 60499 50400.00000 0 14992017.329 17457.741 20653298.885 10 0 60499 51300.00000 0 12971367.498 1695202.457 21912118.042 10 0 60499 52200.00000 0 10990778.843 3610295.893 22745991.821 10 0 60499 53100.00000 0 9108863.313 5724662.821 23138701.153 10 0 60499 54000.00000 0 7377063.453 7989969.780 23082564.521 10 0 60499 54900.00000 0 5837647.680 10349424.406 22578590.723 10 0 60499 55800.00000 0 4522103.575 12739940.659 21636465.529 10 0 60499 56700.00000 0 3449995.541 15094581.430 20274372.049 10 0 60499 57600.00000 0 2628333.961 17345178.188 18518647.525 10 0 60499 58500.00000 0 2051481.915 19425019.649 16403282.268 10 0 60499 59400.00000 0 1701603.093 21271498.119 13969269.416 10 0 60499 60300.00000 0 1549631.943 22828603.438 11263817.118 10 0 60499 61200.00000 0 1556725.146 24049160.242 8339437.552 10 0 60499 62100.00000 0 1676133.055 24896714.590 5252929.894 10 0 60499 63000.00000 0 1855411.793 25346990.304 2064276.639 10 0 60499 63900.00000 0 2038881.993 25388853.203 -1164525.130 10 0 60499 64800.00000 0 2170229.384 25024742.016 -4370674.423 10 0 60499 65700.00000 0 2195136.146 24270547.226 -7491794.713 10 0 60499 66600.00000 0 2063830.376 23154942.720 -10467155.248 10 0 60499 67500.00000 0 1733444.422 21718198.077 -13238860.519 10 0 60499 68400.00000 0 1170080.853 20010521.465 -15752983.810 10 0 60499 69300.00000 0 350497.325 18090003.341 -17960622.023 10 0 60499 70200.00000 0 -736662.102 16020247.619 -19818850.672 10 0 60499 71100.00000 0 -2090142.328 13867790.302 -21291560.235 10 0 60499 72000.00000 0 -3695890.685 11699414.252 -22350157.581 10 0 60499 72900.00000 0 -5527417.265 9579472.707 -22974119.080 10 0 60499 73800.00000 0 -7546687.647 7567333.522 -23151385.105 10 0 60499 74700.00000 0 -9705511.160 5715050.660 -22878588.778 10 0 60499 75600.00000 0 -11947367.053 4065359.519 -22161115.143 10 0 60499 76500.00000 0 -14209592.666 2650078.822 -21012990.137 10 0 60499 77400.00000 0 -16425842.513 1488984.551 -19456601.963 10 0 60499 78300.00000 0 -18528715.988 589201.456 -17522260.632 10 0 60499 79200.00000 0 -20452444.351 -54864.076 -15247604.405 10 0 60499 80100.00000 0 -22135525.118 -461048.696 -12676864.811 10 0 60499 81000.00000 0 -23523194.248 -658435.936 -9860004.572 10 0 60499 81900.00000 0 -24569633.177 -685882.646 -6851745.187 10 0 60499 82800.00000 0 -25239818.849 -590131.408 -3710503.142 10 0 60499 83700.00000 0 -25510939.787 -423589.618 -497255.469 10 0 60499 84600.00000 0 -25373319.432 -241869.830 2725643.247 10 0 60499 85500.00000 0 -24830808.508 -101195.885 5895669.293 10 0 60500 0.00000 0 -23900630.607 -55784.834 8951339.956 10 0 60500 900.00000 0 -22612687.246 -155315.540 11833403.483 10 0 60500 1800.00000 0 -21008353.118 -442591.100 14485981.890 10 0 60500 2700.00000 0 -19138810.454 -951493.802 16857650.191 10 0 60500 3600.00000 0 -17062993.194 -1705319.179 18902427.489 10 0 60500 4500.00000 0 -14845226.187 -2715559.624 20580662.914 10 0 60500 5400.00000 0 -12552657.489 -3981189.323 21859799.656 10 0 60500 6300.00000 0 -10252590.102 -5488481.385 22715002.913 10 0 60500 7200.00000 0 -8009823.513 -7211365.953 23129640.167 10 0 60500 8100.00000 0 -5884114.712 -9112315.690 23095604.853 10 0 60500 9000.00000 0 -3927863.387 -11143723.232 22613477.289 10 0 60500 9900.00000 0 -2184116.742 -13249714.691 21692519.595 10 0 60500 10800.00000 0 -684976.152 -15368325.222 20350504.209 10 0 60500 11700.00000 0 549528.654 -17433947.334 18613378.614 10 0 60500 12600.00000 0 1512051.420 -19379951.017 16514771.814 10 0 60500 13500.00000 0 2208002.076 -21141367.146 14095351.118 10 0 60500 14400.00000 0 2655077.620 -22657522.501 11402040.682 10 0 60500 15300.00000 0 2882271.148 -23874516.198 8487116.122 10 0 60500 16200.00000 0 2928401.000 -24747433.463 5407192.157 10 0 60500 17100.00000 0 2840222.460 -25242203.270 2222122.630 10 0 60500 18000.00000 0 2670202.226 -25337020.968 -1006165.641 10 0 60500 18900.00000 0 2474050.501 -25023275.174 -4214882.082 10 0 60500 19800.00000 0 2308116.060 -24305939.078 -7341600.519 10 0 60500 20700.00000 0 2226755.728 -23203408.949 -10325481.405 10 0 60500 21600.00000 0 2279790.851 -21746796.106 -13108463.418 10 0 60500 22500.00000 0 2510159.774 -19978701.883 -15636400.303 10 0 60500 23400.00000 0 2951866.928 -17951526.990 -17860119.995 10 0 60500 24300.00000 0 3628316.431 -15725386.434 -19736384.911 10 0 60500 25200.00000 0 4551101.628 -13365717.856 -21228734.445 10 0 60500 26100.00000 0 5719302.529 -10940683.646 -22308193.279 10 0 60500 27000.00000 0 7119321.445 -8518475.780 -22953831.969 10 0 60500 27900.00000 0 8725264.358 -6164635.989 -23153169.374 10 0 60500 28800.00000 0 10499852.481 -3939502.858 -22902409.636 10 0 60500 29700.00000 0 12395826.161 -1895891.827 -22206509.691 10 0 60500 30600.00000 0 14357782.669 -77103.925 -21079076.554 10 0 60500 31500.00000 0 16324371.190 1484654.875 -19542096.809 10 0 60500 32400.00000 0 18230753.472 2769379.200 -17625503.912 10 0 60500 33300.00000 0 20011227.443 3769850.213 -15366591.896 10 0 60500 34200.00000 0 21601904.274 4491679.221 -12809287.028 10 0 60500 35100.00000 0 22943327.130 4952808.929 -10003291.611 10 0 60500 36000.00000 0 23982922.237 5182495.039 -7003116.589 10 0 60500 36900.00000 0 24677179.866 5219812.586 -3867021.835 10 0 60500 37800.00000 0 24993474.125 5111751.279 -655884.738 10 0 60500 38700.00000 0 24911445.584 4910981.260 2567980.837 10 0 60500 39600.00000 0 24423888.990 4673384.445 5742032.191 10 0 60500 40500.00000 0 23537109.144 4455456.241 8804708.539 10 0 60500 41400.00000 0 22270730.159 4311687.796 11696621.438 10 0 60500 42300.00000 0 20656966.187 4292039.490 14361701.892 10 0 60500 43200.00000 0 18739384.066 4439612.428 16748282.223 10 0 60500 44100.00000 0 16571209.393 4788616.227 18810092.181 10 0 60500 45000.00000 0 14213246.350 5362718.835 20507150.526 10 0 60500 45900.00000 0 11731497.455 6173848.162 21806535.458 10 0 60500 46800.00000 0 9194581.569 7221496.381 22683019.637 10 0 60500 47700.00000 0 6671056.732 8492556.897 23119558.019 10 0 60500 48600.00000 0 4226758.096 9961701.875 23107619.461 10 0 60500 49500.00000 0 1922260.537 11592285.826 22647355.809 10 0 60500 50400.00000 0 -189429.627 13337738.917 21747605.046 10 0 60500 51300.00000 0 -2064858.775 15143393.268 20425727.992 10 0 60500 52200.00000 0 -3671704.277 16948667.406 18707280.963 10 0 60500 53100.00000 0 -4989881.829 18689518.773 16625529.861 10 0 60500 54000.00000 0 -6012136.159 20301062.745 14220814.038 10 0 60500 54900.00000 0 -6744090.842 21720249.096 11539771.267 10 0 60500 55800.00000 0 -7203755.475 22888483.944 8634438.012 10 0 60500 56700.00000 0 -7420511.265 23754086.948 5561241.807 10 0 60500 57600.00000 0 -7433618.150 24274479.958 2379905.009 10 0 60500 58500.00000 0 -7290306.924 24418014.190 -847718.712 10 0 60500 59400.00000 0 -7043537.608 24165357.979 -4058852.106 10 0 60500 60300.00000 0 -6749519.772 23510385.620 -7191022.186 10 0 60500 61200.00000 0 -6465100.750 22460528.832 -10183283.364 10 0 60500 62100.00000 0 -6245133.437 21036575.182 -12977411.111 10 0 60500 63000.00000 0 -6139936.314 19271921.290 -15519042.014 10 0 60500 63900.00000 0 -6192954.351 17211311.780 -17758737.189 10 0 60500 64800.00000 0 -6438720.823 14909116.833 -19652947.848 10 0 60500 65700.00000 0 -6901207.093 12427220.530 -21164863.931 10 0 60500 66600.00000 0 -7592630.796 9832608.564 -22265129.295 10 0 60500 67500.00000 0 -8512773.212 7194756.270 -22932409.779 10 0 60500 68400.00000 0 -9648835.045 4582925.936 -23153803.523 10 0 60500 69300.00000 0 -10975836.938 2063486.006 -22925086.126 10 0 60500 70200.00000 0 -12457548.118 -302636.589 -22250786.476 10 0 60500 71100.00000 0 -14047904.362 -2462265.618 -21144092.294 10 0 60500 72000.00000 0 -15692855.896 -4371951.060 -19626587.744 10 0 60500 72900.00000 0 -17332567.900 -5999529.986 -17727828.488 10 0 60500 73800.00000 0 -18903881.499 -7325209.259 -15484762.718 10 0 60500 74700.00000 0 -20342932.182 -8342126.569 -12941009.489 10 0 60500 75600.00000 0 -21587816.032 -9056368.150 -10146008.486 10 0 60500 76500.00000 0 -22581192.058 -9486444.271 -7154057.717 10 0 60500 77400.00000 0 -23272711.593 -9662246.227 -4023257.924 10 0 60500 78300.00000 0 -23621172.915 -9623530.226 -814384.249 10 0 60500 79200.00000 0 -23596310.780 -9417993.360 2410292.854 10 0 60500 80100.00000 0 -23180145.822 -9099023.777 5588214.437 10 0 60500 81000.00000 0 -22367837.245 -8723220.782 8657744.159 10 0 60500 81900.00000 0 -21168003.018 -8347790.003 11559360.202 10 0 60500 82800.00000 0 -19602494.045 -8027923.847 14236804.988 10 0 60500 83700.00000 0 -17705631.515 -7814277.856 16638170.724 10 0 60500 84600.00000 0 -15522938.935 -7750649.340 18716900.173 10 0 60500 85500.00000 0 -13109421.244 -7871956.083 20432683.788 10 0 60501 0.00000 0 -10527462.241 -8202600.136 21752236.401 10 0 60501 900.00000 0 -7844425.572 -8755285.912 22649939.698 10 0 60501 1800.00000 0 -5130061.511 -9530342.143 23108336.896 10 0 60501 2700.00000 0 -2453821.538 -10515577.347 23118472.805 10 0 60501 3600.00000 0 117805.517 -11686675.456 22680070.973 10 0 60501 4500.00000 0 2523827.621 -13008116.277 21801545.100 10 0 60501 5400.00000 0 4711049.568 -14434583.523 20499843.939 10 0 60501 6300.00000 0 6636044.210 -15912802.816 18800131.947 10 0 60501 7200.00000 0 8266713.581 -17383733.873 16735310.956 10 0 60501 8100.00000 0 9583375.448 -18785026.076 14345391.124 10 0 60501 9000.00000 0 10579330.365 -20053635.144 11676722.333 10 0 60501 9900.00000 0 11260885.838 -21128491.393 8781100.098 10 0 60501 10800.00000 0 11646836.942 -21953107.341 5714762.701 10 0 60501 11700.00000 0 11767425.583 -22478014.533 2537298.699 10 0 60501 12600.00000 0 11662822.646 -22662926.043 -689513.887 10 0 60501 13500.00000 0 11381197.748 -22478532.559 -3902913.780 10 0 60501 14400.00000 0 10976458.860 -21907855.068 -7040383.953 10 0 60501 15300.00000 0 10505758.287 -20947095.866 -10040875.586 10 0 60501 16200.00000 0 10026871.620 -19605950.976 -12846003.784 10 0 60501 17100.00000 0 9595561.604 -17907369.718 -15401190.796 10 0 60501 18000.00000 0 9263039.539 -15886770.829 -17656733.657 10 0 60501 18900.00000 0 9073632.622 -13590747.611 -19568774.962 10 0 60501 19800.00000 0 9062756.561 -11075316.076 -21100157.577 10 0 60501 20700.00000 0 9255279.743 -8403779.353 -22221146.625 10 0 60501 21600.00000 0 9664348.312 -5644297.534 -22910004.944 10 0 60501 22500.00000 0 10290721.924 -2867264.275 -23153411.274 10 0 60501 23400.00000 0 11122648.179 -142599.351 -22946713.572 10 0 60501 24300.00000 0 12136280.976 2462930.455 -22294013.138 10 0 60501 25200.00000 0 13296625.101 4888251.261 -21208078.461 10 0 60501 26100.00000 0 14558967.217 7080277.917 -19710090.916 10 0 60501 27000.00000 0 15870733.057 8995871.336 -17829227.616 10 0 60501 27900.00000 0 17173692.731 10603377.174 -15602089.726 10 0 60501 28800.00000 0 18406421.485 11883683.215 -13071987.499 10 0 60501 29700.00000 0 19506912.514 12830753.025 -10288095.980 10 0 60501 30600.00000 0 20415232.064 13451615.314 -7304497.817 10 0 60501 31500.00000 0 21076105.237 13765811.179 -4179131.832 10 0 60501 32400.00000 0 21441323.816 13804324.052 -972667.828 10 0 60501 33300.00000 0 21471874.874 13608038.826 2252670.429 10 0 60501 34200.00000 0 21139700.676 13225796.186 5434311.123 10 0 60501 35100.00000 0 20429015.808 12712125.098 8510545.714 10 0 60501 36000.00000 0 19337126.081 12124749.662 11421722.260 10 0 60501 36900.00000 0 17874714.573 11521975.835 14111397.662 10 0 60501 37800.00000 0 16065582.425 10960068.316 16527426.839 10 0 60501 38700.00000 0 13945854.678 10490728.063 18622968.110 10 0 60501 39600.00000 0 11562683.627 10158776.486 20357385.866 10 0 60501 40500.00000 0 8972502.863 10000143.571 21697033.683 10 0 60501 41400.00000 0 6238903.681 10040244.361 22615903.351 10 0 60501 42300.00000 0 3430221.000 10292812.011 23096127.775 10 0 60501 43200.00000 0 616927.833 10759236.630 23128328.435 10 0 60501 44100.00000 0 -2131054.834 11428438.098 22711800.811 10 0 60501 45000.00000 0 -4747022.333 12277278.962 21854534.047 10 0 60501 45900.00000 0 -7170015.325 13271500.992 20573064.033 10 0 60501 46800.00000 0 -9347109.514 14367147.229 18892162.057 10 0 60501 47700.00000 0 -11235371.631 15512410.940 16844364.117 10 0 60501 48600.00000 0 -12803400.852 16649834.843 14469349.032 10 0 60501 49500.00000 0 -14032391.807 17718768.993 11813176.342 10 0 60501 50400.00000 0 -14916675.014 18657984.388 8927397.964 10 0 60501 51300.00000 0 -15463712.369 19408332.343 5868060.159 10 0 60501 52200.00000 0 -15693548.110 19915337.218 2694614.860 10 0 60501 53100.00000 0 -15637738.690 20131612.454 -531238.417 10 0 60501 54000.00000 0 -15337807.088 20018996.897 -3746757.219 10 0 60501 54900.00000 0 -14843287.419 19550319.999 -6889383.250 10 0 60501 55800.00000 0 -14209443.290 18710720.086 -9897967.170 10 0 60501 56700.00000 0 -13494757.240 17498458.742 -12713966.295 10 0 60501 57600.00000 0 -12758298.368 15925195.650 -15282590.919 10 0 60501 58500.00000 0 -12057080.524 14015711.440 -17553876.186 10 0 60501 59400.00000 0 -11443523.562 11807089.210 -19483658.008 10 0 60501 60300.00000 0 -10963125.665 9347388.532 -21034433.812 10 0 60501 61200.00000 0 -10652445.552 6693867.191 -22176091.328 10 0 60501 62100.00000 0 -10537479.850 3910824.604 -22886491.434 10 0 60501 63000.00000 0 -10632504.076 1067156.749 -23151894.188 10 0 60501 63900.00000 0 -10939425.838 -1766275.664 -22967220.276 10 0 60501 64800.00000 0 -11447677.161 -4519356.583 -22336143.424 10 0 60501 65700.00000 0 -12134650.023 -7125389.306 -21271012.496 10 0 60501 66600.00000 0 -12966656.325 -9523625.911 -19792605.304 10 0 60501 67500.00000 0 -13900371.523 -11661547.128 -17929719.239 10 0 60501 68400.00000 0 -14884700.808 -13496798.903 -15718606.925 10 0 60501 69300.00000 0 -15862989.063 -14998706.278 -13202267.993 10 0 60501 70200.00000 0 -16775481.364 -16149302.938 -10429610.799 10 0 60501 71100.00000 0 -17561930.341 -16943835.014 -7454500.405 10 0 60501 72000.00000 0 -18164240.480 -17390719.664 -4334711.358 10 0 60501 72900.00000 0 -18529037.945 -17510961.747 -1130805.682 10 0 60501 73800.00000 0 -18610057.626 -17337054.572 2095042.079 10 0 60501 74700.00000 0 -18370246.779 -16911412.176 5280249.830 10 0 60501 75600.00000 0 -17783496.577 -16284400.154 8363039.490 10 0 60501 76500.00000 0 -16835928.530 -15512048.699 11283631.671 10 0 60501 77400.00000 0 -15526681.347 -14653544.637 13985400.426 10 0 60501 78300.00000 0 -13868164.775 -13768608.271 16415965.956 10 0 60501 79200.00000 0 -11885769.085 -12914865.387 18528204.547 10 0 60501 80100.00000 0 -9617041.552 -12145324.757 20281156.704 10 0 60501 81000.00000 0 -7110363.270 -11506066.820 21640816.507 10 0 60501 81900.00000 0 -4423180.252 -11034240.263 22580787.586 10 0 60501 82800.00000 0 -1619861.120 -10756450.293 23082793.522 10 0 60501 83700.00000 0 1230730.989 -10687606.027 23137033.205 10 0 60501 84600.00000 0 4057852.937 -10830275.411 22742374.419 10 0 60501 85500.00000 0 6791575.336 -11174574.950 21906381.781 10 0 60502 0.00000 0 9365444.810 -11698599.355 20645178.172 10 0 60502 900.00000 0 11719006.637 -12369374.067 18983140.900 10 0 60502 1800.00000 0 13800080.368 -13144290.731 16952439.352 10 0 60502 2700.00000 0 15566698.930 -13972967.045 14592419.817 10 0 60502 3600.00000 0 16988627.301 -14799452.760 11948849.990 10 0 60502 4500.00000 0 18048398.927 -15564689.675 9073036.336 10 0 60502 5400.00000 0 18741826.425 -16209122.018 6020830.903 10 0 60502 6300.00000 0 19077965.211 -16675346.865 2851546.498 10 0 60502 7200.00000 0 19078531.724 -16910692.072 -373198.619 10 0 60502 8100.00000 0 18776801.019 -16869611.862 -3590683.727 10 0 60502 9000.00000 0 18216030.595 -16515797.624 -6738312.280 10 0 60502 9900.00000 0 17447477.629 -15823913.362 -9754837.430 10 0 60502 10800.00000 0 16528094.083 -14780881.065 -12581561.634 10 0 60502 11700.00000 0 15517997.935 -13386660.359 -15163486.070 10 0 60502 12600.00000 0 14477828.201 -11654488.304 -17450386.642 10 0 60502 13500.00000 0 13466096.288 -9610568.104 -19397795.026 10 0 60502 14400.00000 0 12536646.217 -7293219.052 -20967865.439 10 0 60502 15300.00000 0 11736331.221 -4751522.598 -22130110.138 10 0 60502 16200.00000 0 11103004.859 -2043520.750 -22861989.626 10 0 60502 17100.00000 0 10663911.107 765958.320 -23149346.482 10 0 60502 18000.00000 0 10434540.831 3607757.151 -22986674.936 10 0 60502 18900.00000 0 10418002.155 6411026.325 -22377221.536 10 0 60502 19800.00000 0 10604930.474 9105932.980 -21332915.524 10 0 60502 20700.00000 0 10973941.112 11626328.350 -19874130.746 10 0 60502 21600.00000 0 11492604.756 13912264.123 -18029284.081 10 0 60502 22500.00000 0 12118903.914 15912253.837 -15834278.424 10 0 60502 23400.00000 0 12803108.420 17585186.142 -13331801.200 10 0 60502 24300.00000 0 13489990.507 18901811.453 -10570492.100 10 0 60502 25200.00000 0 14121285.679 19845741.262 -7603996.235 10 0 60502 26100.00000 0 14638295.376 20413919.739 -4489921.176 10 0 60502 27000.00000 0 14984521.427 20616549.310 -1288718.168 10 0 60502 27900.00000 0 15108221.054 20476474.738 1937490.658 10 0 60502 28800.00000 0 14964774.516 20028052.781 5126116.234 10 0 60502 29700.00000 0 14518765.399 19315555.996 8215314.236 10 0 60502 30600.00000 0 13745685.701 18391178.630 11145181.050 10 0 60502 31500.00000 0 12633193.603 17312728.989 13858910.925 10 0 60502 32400.00000 0 11181870.559 16141105.605 16303892.183 10 0 60502 33300.00000 0 9405445.246 14937663.267 18432721.663 10 0 60502 34200.00000 0 7330474.137 13761579.348 20204118.267 10 0 60502 35100.00000 0 4995490.938 12667330.571 21583718.555 10 0 60502 36000.00000 0 2449659.089 11702385.551 22544739.619 10 0 60502 36900.00000 0 -249017.931 10905209.303 23068496.933 10 0 60502 37800.00000 0 -3035855.607 10303662.865 23144767.564 10 0 60502 38700.00000 0 -5841928.555 9913864.731 22771991.887 10 0 60502 39600.00000 0 -8596692.007 9739561.644 21957309.733 10 0 60502 40500.00000 0 -11230677.168 9772035.184 20716429.906 10 0 60502 41400.00000 0 -13678149.704 9990548.321 19073334.840 10 0 60502 42300.00000 0 -15879621.776 10363313.640 17059825.256 10 0 60502 43200.00000 0 -17784113.741 10848943.035 14714912.624 10 0 60502 44100.00000 0 -19351071.663 11398318.388 12084070.153 10 0 60502 45000.00000 0 -20551860.693 11956804.800 9218355.991 10 0 60502 45900.00000 0 -21370771.853 12466713.132 6173424.977 10 0 60502 46800.00000 0 -21805499.913 12869907.746 3008447.767 10 0 60502 47700.00000 0 -21867072.216 13110448.719 -215041.634 10 0 60502 48600.00000 0 -21579231.386 13137155.920 -3434347.159 10 0 60502 49500.00000 0 -20977298.193 12905985.396 -6586836.834 10 0 60502 50400.00000 0 -20106562.828 12382116.191 -9611169.010 10 0 60502 51300.00000 0 -19020272.999 11541657.895 -12448493.861 10 0 60502 52200.00000 0 -17777304.485 10372905.354 -15043605.827 10 0 60502 53100.00000 0 -16439613.140 8877086.117 -17346023.699 10 0 60502 54000.00000 0 -15069576.669 7068567.955 -19310976.766 10 0 60502 54900.00000 0 -13727338.844 4974516.575 -20900277.515 10 0 60502 55800.00000 0 -12468268.501 2634017.114 -22083063.861 10 0 60502 56700.00000 0 -11340640.445 96695.487 -22836396.679 10 0 60502 57600.00000 0 -10383635.560 -2579103.334 -23145701.440 10 0 60502 58500.00000 0 -9625743.822 -5328504.468 -23005045.900 10 0 60502 59400.00000 0 -9083636.530 -8082568.855 -22417249.045 10 0 60502 60300.00000 0 -8761554.188 -10770933.293 -21393819.747 10 0 60502 61200.00000 0 -8651234.678 -13324515.365 -19954726.803 10 0 60502 62100.00000 0 -8732383.562 -15678171.261 -18128005.182 10 0 60502 63000.00000 0 -8973665.645 -17773196.597 -15949206.399 10 0 60502 63900.00000 0 -9334175.021 -19559566.864 -13460703.806 10 0 60502 64800.00000 0 -9765320.813 -20997825.092 -10710866.417 10 0 60502 65700.00000 0 -10213048.388 -22060539.023 -7753117.293 10 0 60502 66600.00000 0 -10620301.794 -22733268.054 -4644894.874 10 0 60502 67500.00000 0 -10929623.078 -23015000.685 -1446537.455 10 0 60502 68400.00000 0 -11085778.443 -22918045.351 1779887.451 10 0 60502 69300.00000 0 -11038300.137 -22467380.314 4971786.032 10 0 60502 70200.00000 0 -10743836.598 -21699490.924 8067250.000 10 0 60502 71100.00000 0 -10168211.472 -20660743.836 11006253.824 10 0 60502 72000.00000 0 -9288104.431 -19405367.077 13731814.283 10 0 60502 72900.00000 0 -8092282.625 -17993121.060 16191090.113 10 0 60502 73800.00000 0 -6582330.366 -16486758.355 18336400.911 10 0 60502 74700.00000 0 -4772845.618 -14949378.549 20126146.020 10 0 60502 75600.00000 0 -2691094.023 -13441788.645 21525606.296 10 0 60502 76500.00000 0 -376133.577 -12019978.916 22507613.824 10 0 60502 77400.00000 0 2122554.932 -10732819.245 23053077.183 10 0 60502 78300.00000 0 4746876.321 -9620071.559 23151352.505 10 0 60502 79200.00000 0 7432294.688 -8710800.912 22800453.285 10 0 60502 80100.00000 0 10110283.605 -8022251.158 22007094.794 10 0 60502 81000.00000 0 12710952.552 -7559231.965 20786571.780 10 0 60502 81900.00000 0 15165741.751 -7314042.699 19162471.168 10 0 60502 82800.00000 0 17410074.335 -7266936.441 17166224.399 10 0 60502 83700.00000 0 19385856.185 -7387104.804 14836507.090 10 0 60502 84600.00000 0 21043719.635 -7634142.391 12218496.593 10 0 60502 85500.00000 0 22344917.414 -7959929.395 9363001.016 99